PAL1805 RPLL-RPMD

Flight info

Callsign PAL1805
Flight time N/A
Altitude 37000
Route IPATA2R IPATA B462 MASBA W9A BN W9 RIMAR RIMAR2R
Aircraft B77W/H-L/LB1D1

Departure

Time N/A
Airport Ninoy Aquino International Airport (RPLL)

Arrival

Time 2026-04-28 12:11
Airport Francisco Bangoy International Airport (RPMD)
Time Latitude Longitude Altitude Speed Heading
2026-04-28 11:04 13.16819 122.66517 36891 ft 487 kts 132°
2026-04-28 11:05 13.14614 122.69195 36890 ft 486 kts 132°
2026-04-28 11:05 13.10259 122.74482 36891 ft 487 kts 132°
2026-04-28 11:06 13.05878 122.79797 36889 ft 488 kts 132°
2026-04-28 11:06 13.01504 122.85101 36889 ft 487 kts 132°
2026-04-28 11:07 12.97095 122.90445 36889 ft 487 kts 132°
2026-04-28 11:07 12.92755 122.95702 36888 ft 486 kts 132°
2026-04-28 11:08 12.88359 123.01022 36890 ft 487 kts 132°
2026-04-28 11:08 12.83997 123.06300 36892 ft 486 kts 131°
2026-04-28 11:09 12.79633 123.11575 36893 ft 486 kts 131°
2026-04-28 11:09 12.75238 123.16885 36891 ft 487 kts 131°
2026-04-28 11:10 12.70859 123.22174 36893 ft 487 kts 131°
2026-04-28 11:10 12.66463 123.27479 36890 ft 487 kts 131°
2026-04-28 11:11 12.62107 123.32733 36896 ft 487 kts 131°
2026-04-28 11:11 12.57717 123.38026 36891 ft 485 kts 131°
2026-04-28 11:12 12.54622 123.41755 36891 ft 485 kts 131°
2026-04-28 11:12 12.50248 123.47022 36890 ft 485 kts 131°
2026-04-28 11:13 12.45870 123.52291 36892 ft 486 kts 131°
2026-04-28 11:13 12.41493 123.57557 36888 ft 485 kts 131°
2026-04-28 11:14 12.36845 123.62572 36882 ft 483 kts 143°
2026-04-28 11:14 12.31173 123.66190 36889 ft 481 kts 153°
2026-04-28 11:15 12.25301 123.69451 36898 ft 479 kts 153°
2026-04-28 11:15 12.19438 123.72694 36887 ft 478 kts 153°
2026-04-28 11:16 12.13531 123.75956 36890 ft 478 kts 153°
2026-04-28 11:16 12.07665 123.79192 36886 ft 478 kts 153°
2026-04-28 11:17 12.01804 123.82422 36890 ft 478 kts 153°
2026-04-28 11:17 11.95961 123.85640 36885 ft 478 kts 153°
2026-04-28 11:18 11.90083 123.88876 36883 ft 478 kts 153°
2026-04-28 11:18 11.84212 123.92106 36886 ft 478 kts 153°
2026-04-28 11:19 11.78361 123.95323 36888 ft 478 kts 153°
2026-04-28 11:19 11.72511 123.98538 36889 ft 477 kts 153°
2026-04-28 11:20 11.66647 124.01759 36891 ft 477 kts 153°
2026-04-28 11:20 11.60768 124.04987 36890 ft 478 kts 153°
2026-04-28 11:21 11.54922 124.08195 36888 ft 478 kts 153°
2026-04-28 11:21 11.49028 124.11429 36891 ft 478 kts 153°
2026-04-28 11:22 11.44148 124.14105 36890 ft 477 kts 153°
2026-04-28 11:22 11.37222 124.17899 36892 ft 495 kts 153°
2026-04-28 11:23 11.31036 124.21287 36894 ft 506 kts 153°
2026-04-28 11:23 11.24843 124.24677 36891 ft 505 kts 152°
2026-04-28 11:24 11.18624 124.28082 36895 ft 506 kts 152°
2026-04-28 11:24 11.14511 124.30331 36898 ft 506 kts 152°
2026-04-28 11:25 11.06233 124.34855 36900 ft 506 kts 153°
2026-04-28 11:25 10.99973 124.38229 36902 ft 504 kts 153°
2026-04-28 11:26 10.93781 124.41561 36901 ft 504 kts 153°
2026-04-28 11:26 10.87562 124.44907 36899 ft 505 kts 153°
2026-04-28 11:27 10.81335 124.48257 36899 ft 505 kts 153°
2026-04-28 11:27 10.75153 124.51588 36890 ft 505 kts 152°
2026-04-28 11:28 10.68932 124.54968 36883 ft 506 kts 152°
2026-04-28 11:28 10.62726 124.58340 36881 ft 506 kts 152°
2026-04-28 11:29 10.56490 124.61725 36885 ft 506 kts 152°
2026-04-28 11:29 10.50289 124.65089 36879 ft 506 kts 153°
2026-04-28 11:30 10.44049 124.68473 36880 ft 506 kts 153°
2026-04-28 11:30 10.34696 124.73541 36879 ft 506 kts 153°
2026-04-28 11:31 10.28494 124.76901 36879 ft 506 kts 152°
2026-04-28 11:31 10.22282 124.80263 36876 ft 506 kts 152°
2026-04-28 11:32 10.16032 124.83645 36876 ft 507 kts 153°
2026-04-28 11:32 10.09815 124.87007 36885 ft 506 kts 152°
2026-04-28 11:33 10.03579 124.90379 36889 ft 507 kts 152°
2026-04-28 11:33 9.97333 124.93754 36889 ft 507 kts 153°
2026-04-28 11:34 9.91108 124.97116 36887 ft 505 kts 152°
2026-04-28 11:34 9.84878 125.00480 36890 ft 504 kts 152°
2026-04-28 11:35 9.78707 125.03810 36890 ft 504 kts 152°
2026-04-28 11:35 9.72496 125.07158 36884 ft 504 kts 152°
2026-04-28 11:36 9.66317 125.10486 36886 ft 503 kts 152°
2026-04-28 11:36 9.60113 125.13825 36886 ft 503 kts 152°
2026-04-28 11:37 9.53924 125.17130 36888 ft 502 kts 152°
2026-04-28 11:37 9.47717 125.20437 36889 ft 501 kts 152°
2026-04-28 11:38 9.41568 125.23714 36887 ft 500 kts 152°
2026-04-28 11:38 9.35393 125.27002 36883 ft 495 kts 152°
2026-04-28 11:39 9.32408 125.28593 36888 ft 481 kts 152°
2026-04-28 11:39 9.29468 125.30157 36886 ft 472 kts 152°
2026-04-28 11:39 9.23597 125.33283 36885 ft 473 kts 152°
2026-04-28 11:40 9.17781 125.36378 36885 ft 473 kts 152°
2026-04-28 11:40 9.11910 125.39500 36891 ft 472 kts 152°
2026-04-28 11:41 9.06088 125.42596 36894 ft 473 kts 152°
2026-04-28 11:41 9.00232 125.45709 36898 ft 472 kts 152°
2026-04-28 11:42 8.94159 125.48236 36879 ft 471 kts 166°
2026-04-28 11:42 8.90930 125.48809 36645 ft 470 kts 173°
2026-04-28 11:42 8.87666 125.49159 36183 ft 474 kts 173°
2026-04-28 11:43 8.84384 125.49490 35715 ft 477 kts 173°
2026-04-28 11:43 8.81057 125.49825 35373 ft 479 kts 173°
2026-04-28 11:43 8.77708 125.50163 35122 ft 479 kts 173°
2026-04-28 11:43 8.74379 125.50500 34852 ft 476 kts 173°
2026-04-28 11:44 8.71052 125.50836 34035 ft 477 kts 173°
2026-04-28 11:44 8.67749 125.51170 33108 ft 479 kts 173°
2026-04-28 11:44 8.64446 125.51505 32270 ft 480 kts 173°
2026-04-28 11:44 8.61127 125.51842 31450 ft 481 kts 172°
2026-04-28 11:45 8.57783 125.52181 30632 ft 482 kts 172°
2026-04-28 11:45 8.54469 125.52516 30142 ft 475 kts 172°
2026-04-28 11:45 8.51201 125.52844 29660 ft 469 kts 172°
2026-04-28 11:45 8.47960 125.53136 29133 ft 464 kts 173°
2026-04-28 11:46 8.44761 125.53419 28426 ft 462 kts 173°
2026-04-28 11:46 8.41506 125.53709 27441 ft 466 kts 172°
2026-04-28 11:46 8.38312 125.53993 26584 ft 466 kts 172°
2026-04-28 11:46 8.35086 125.54281 25943 ft 461 kts 172°
2026-04-28 11:47 8.31904 125.54565 25382 ft 455 kts 172°
2026-04-28 11:47 8.28752 125.54846 24819 ft 452 kts 172°
2026-04-28 11:47 8.25599 125.55128 24211 ft 450 kts 173°
2026-04-28 11:47 8.22476 125.55409 23609 ft 448 kts 173°
2026-04-28 11:48 8.19377 125.55686 23027 ft 445 kts 173°
2026-04-28 11:48 8.16296 125.55962 22451 ft 443 kts 173°
2026-04-28 11:48 8.13263 125.56234 21890 ft 441 kts 173°
2026-04-28 11:48 8.10197 125.56508 21384 ft 437 kts 173°
2026-04-28 11:49 8.07183 125.56778 20906 ft 433 kts 173°
2026-04-28 11:49 8.04174 125.57047 20418 ft 429 kts 173°
2026-04-28 11:49 8.01219 125.57312 19925 ft 425 kts 173°
2026-04-28 11:49 7.98260 125.57577 19440 ft 421 kts 173°
2026-04-28 11:50 7.95370 125.58033 18927 ft 416 kts 166°
2026-04-28 11:50 7.92544 125.58657 18414 ft 413 kts 166°
2026-04-28 11:50 7.89755 125.59283 17928 ft 410 kts 166°
2026-04-28 11:50 7.87005 125.59901 17425 ft 407 kts 166°
2026-04-28 11:51 7.84232 125.60523 16905 ft 404 kts 166°
2026-04-28 11:51 7.81476 125.61140 16389 ft 401 kts 166°
2026-04-28 11:51 7.78801 125.61739 16035 ft 393 kts 165°
2026-04-28 11:51 7.76165 125.62328 15919 ft 379 kts 165°
2026-04-28 11:52 7.73604 125.62900 15815 ft 365 kts 165°
2026-04-28 11:52 7.71176 125.63442 15698 ft 350 kts 165°
2026-04-28 11:52 7.68841 125.63964 15608 ft 335 kts 165°
2026-04-28 11:52 7.66606 125.64464 15581 ft 321 kts 165°
2026-04-28 11:53 7.64467 125.64942 15345 ft 312 kts 165°
2026-04-28 11:53 7.62322 125.65423 15006 ft 311 kts 165°
2026-04-28 11:53 7.60208 125.65896 14629 ft 311 kts 165°
2026-04-28 11:53 7.58099 125.66368 14295 ft 309 kts 165°
2026-04-28 11:54 7.56005 125.66836 13973 ft 307 kts 165°
2026-04-28 11:54 7.53920 125.67303 13629 ft 306 kts 165°
2026-04-28 11:54 7.51822 125.67772 13292 ft 305 kts 165°
2026-04-28 11:54 7.49757 125.68233 12955 ft 304 kts 165°
2026-04-28 11:55 7.47697 125.68694 12628 ft 303 kts 164°
2026-04-28 11:55 7.45600 125.69164 11973 ft 315 kts 164°
2026-04-28 11:55 7.43415 125.69654 11228 ft 326 kts 164°
2026-04-28 11:55 7.41193 125.70150 10465 ft 328 kts 165°
2026-04-28 11:56 7.38977 125.70644 9749 ft 327 kts 165°
2026-04-28 11:56 7.36764 125.71138 9046 ft 327 kts 165°
2026-04-28 11:56 7.34553 125.71632 8338 ft 325 kts 165°
2026-04-28 11:56 7.32367 125.72201 7803 ft 316 kts 155°
2026-04-28 11:57 7.30551 125.73328 7477 ft 297 kts 134°
2026-04-28 11:57 7.29314 125.74901 7226 ft 278 kts 115°
2026-04-28 11:57 7.28685 125.76687 7103 ft 265 kts 98°
2026-04-28 11:57 7.28618 125.78487 6924 ft 255 kts 81°
2026-04-28 11:58 7.29045 125.80160 6659 ft 245 kts 66°
2026-04-28 11:58 7.29899 125.81663 6038 ft 251 kts 51°
2026-04-28 11:58 7.31152 125.82848 5781 ft 245 kts 34°
2026-04-28 11:58 7.32642 125.83594 5765 ft 232 kts 19°
2026-04-28 11:59 7.34204 125.83901 5676 ft 223 kts
2026-04-28 11:59 7.35750 125.83807 5417 ft 224 kts 350°
2026-04-28 11:59 7.37231 125.83320 5168 ft 224 kts 335°
2026-04-28 11:59 7.38591 125.82531 4858 ft 225 kts 329°
2026-04-28 12:00 7.39896 125.81625 4597 ft 224 kts 325°
2026-04-28 12:00 7.41128 125.80681 4399 ft 221 kts 323°
2026-04-28 12:00 7.42320 125.79710 4123 ft 222 kts 322°
2026-04-28 12:00 7.43503 125.78707 4001 ft 218 kts 321°
2026-04-28 12:01 7.44663 125.77699 3990 ft 220 kts 321°
2026-04-28 12:01 7.45822 125.76677 3989 ft 221 kts 321°
2026-04-28 12:01 7.46978 125.75647 3991 ft 221 kts 321°
2026-04-28 12:01 7.48133 125.74605 3998 ft 222 kts 317°
2026-04-28 12:02 7.48943 125.73301 3976 ft 225 kts 287°
2026-04-28 12:02 7.48931 125.71729 3828 ft 227 kts 251°
2026-04-28 12:02 7.48052 125.70444 3764 ft 227 kts 216°
2026-04-28 12:02 7.46586 125.69855 3747 ft 226 kts 185°
2026-04-28 12:03 7.44994 125.69743 3754 ft 228 kts 182°
2026-04-28 12:03 7.43415 125.69659 3748 ft 220 kts 182°
2026-04-28 12:03 7.41904 125.69579 3749 ft 214 kts 182°
2026-04-28 12:03 7.40562 125.69508 3740 ft 206 kts 182°
2026-04-28 12:04 7.39053 125.69430 3758 ft 229 kts 182°
2026-04-28 12:04 7.37402 125.69347 3763 ft 242 kts 180°
2026-04-28 12:04 7.35768 125.69706 3743 ft 241 kts 150°
2026-04-28 12:04 7.34410 125.70683 3735 ft 239 kts 137°
2026-04-28 12:05 7.33220 125.71770 3687 ft 220 kts 135°
2026-04-28 12:05 7.32119 125.72763 3688 ft 204 kts 137°
2026-04-28 12:05 7.31061 125.73673 3646 ft 195 kts 137°
2026-04-28 12:05 7.30044 125.74548 3516 ft 187 kts 137°
2026-04-28 12:06 7.29066 125.75391 3377 ft 183 kts 137°
2026-04-28 12:06 7.28109 125.76216 3226 ft 175 kts 137°
2026-04-28 12:06 7.27177 125.76987 3078 ft 171 kts 145°
2026-04-28 12:06 7.26084 125.77471 2939 ft 170 kts 165°
2026-04-28 12:07 7.24900 125.77554 2800 ft 172 kts 186°
2026-04-28 12:07 7.23749 125.77226 2649 ft 172 kts 206°
2026-04-28 12:07 7.22783 125.76527 2502 ft 171 kts 227°
2026-04-28 12:07 7.22025 125.75620 2371 ft 169 kts 231°
2026-04-28 12:08 7.21260 125.74700 2216 ft 170 kts 230°
2026-04-28 12:08 7.20499 125.73809 2074 ft 169 kts 229°
2026-04-28 12:08 7.19730 125.72911 1932 ft 166 kts 229°
2026-04-28 12:08 7.18980 125.72037 1772 ft 166 kts 229°
2026-04-28 12:09 7.18227 125.71165 1542 ft 164 kts 228°
2026-04-28 12:09 7.17486 125.70306 1313 ft 163 kts 228°
2026-04-28 12:09 7.16735 125.69434 1092 ft 163 kts 228°
2026-04-28 12:09 7.15994 125.68574 874 ft 162 kts 228°
2026-04-28 12:10 7.15251 125.67722 668 ft 161 kts 229°
2026-04-28 12:10 7.14523 125.66875 469 ft 159 kts 229°
2026-04-28 12:10 7.13796 125.66030 246 ft 156 kts 229°
2026-04-28 12:10 7.13107 125.65226 119 ft 141 kts 228°
2026-04-28 12:11 7.12561 125.64589 119 ft 97 kts 230°
2026-04-28 12:11 7.12217 125.64188 119 ft 53 kts 229°
2026-04-28 12:11 7.12054 125.64001 118 ft 29 kts 229°
2026-04-28 12:11 7.11927 125.63853 118 ft 27 kts 229°
2026-04-28 12:12 7.11807 125.63714 119 ft 22 kts 229°
2026-04-28 12:12 7.11756 125.63653 119 ft 8 kts 234°
2026-04-28 12:12 7.11748 125.63596 119 ft 8 kts 272°
2026-04-28 12:12 7.11731 125.63556 118 ft 4 kts 181°
2026-04-28 12:13 7.11720 125.63563 118 ft 1 kts 122°
2026-04-28 12:13 7.11718 125.63571 119 ft 1 kts 96°
2026-04-28 12:13 7.11723 125.63598 119 ft 6 kts 70°
2026-04-28 12:13 7.11759 125.63656 119 ft 11 kts 51°
2026-04-28 12:14 7.11812 125.63717 119 ft 11 kts 49°
2026-04-28 12:14 7.11862 125.63775 118 ft 10 kts 51°
2026-04-28 12:14 7.11909 125.63832 119 ft 10 kts 50°
2026-04-28 12:14 7.11957 125.63888 118 ft 11 kts 49°
2026-04-28 12:15 7.12025 125.63966 119 ft 17 kts 49°
2026-04-28 12:15 7.12118 125.64073 118 ft 21 kts 50°
2026-04-28 12:15 7.12210 125.64182 119 ft 19 kts 50°
2026-04-28 12:15 7.12298 125.64284 118 ft 18 kts 49°
2026-04-28 12:16 7.12380 125.64379 118 ft 17 kts 49°
2026-04-28 12:16 7.12454 125.64464 118 ft 16 kts 49°
2026-04-28 12:16 7.12518 125.64539 118 ft 10 kts 49°
2026-04-28 12:16 7.12549 125.64560 118 ft 4 kts 358°
2026-04-28 12:17 7.12578 125.64546 118 ft 4 kts 327°
2026-04-28 12:17 7.12607 125.64524 118 ft 5 kts 321°
2026-04-28 12:17 7.12636 125.64500 118 ft 5 kts 319°
2026-04-28 12:17 7.12666 125.64474 118 ft 5 kts 319°
2026-04-28 12:18 7.12699 125.64448 118 ft 5 kts 336°
2026-04-28 12:18 7.12735 125.64455 118 ft 5 kts 38°
2026-04-28 12:18 7.12764 125.64483 118 ft 6 kts 46°
2026-04-28 12:18 7.12793 125.64515 118 ft 6 kts 48°
2026-04-28 12:19 7.12822 125.64548 118 ft 6 kts 49°
2026-04-28 12:19 7.12853 125.64584 118 ft 6 kts 49°
2026-04-28 12:19 7.12870 125.64597 118 ft 2 kts 13°
2026-04-28 12:19 7.12890 125.64594 118 ft 4 kts 338°
2026-04-28 12:20 7.12918 125.64575 118 ft 5 kts 321°
2026-04-28 12:20 7.12936 125.64560 118 ft 0 kts 320°
2026-04-28 12:20 7.12936 125.64559 118 ft 0 kts 320°
2026-04-28 12:21 7.12938 125.64558 118 ft 3 kts 319°
2026-04-28 12:21 7.12942 125.64555 118 ft 0 kts 320°